[[{"header":{"parameterUnit":"m.s-1","parameterCategory":1,"la1":30.2991,"la2":30.254,"lo1":-89.0895,"lo2":-89.0444,"dy":0.0017,"dx":0.0017,"nx":28,"ny":28,"refTime":"2025-04-20T03:00:00:Z","depth":0,"parameterNumber":2,"parameterNumberName":"U-component_of_WINDS"},"data":[0,0,0,0,0,0,0,0,0,0,0,0,0,0,0,0,0,0,0,0,0,0,0,0,0,0,0,0,0,0,0,0,0,0,0,0,0,0,0,0,0,0,0,0,0,0,0,0,0,0,0,0,0,0,0,0,0,0,-5.8201,-5.8202,0,-5.8305,-5.8306,-5.8307,-5.8263,-5.826,-5.8258,-5.8256,-5.8359,-5.8364,-5.8369,0,0,0,0,0,0,0,0,0,0,0,0,0,-5.7961,-5.7966,-5.8201,-5.8202,-5.8203,-5.8305,-5.8306,-5.8307,-5.8263,-5.826,-5.8257,-5.8254,-5.8357,-5.8363,-5.837,0,0,0,0,0,0,0,0,0,0,0,0,0,-5.8065,-5.7967,-5.82,-5.8194,-5.8194,-5.8304,-5.8306,-5.8308,-5.8264,-5.826,-5.8257,-5.8253,-5.8355,-5.8363,-5.837,-5.8493,0,0,-5.8394,-5.8397,0,0,0,0,0,0,0,0,-5.8059,-5.8074,-5.8193,-5.8194,-5.8195,-5.8267,-5.8259,-5.837,-5.8265,-5.8237,-5.8256,-5.8251,-5.8331,-5.8341,-5.8368,-5.8497,-5.8502,-5.8394,-5.8399,-5.8402,-5.8404,0,0,0,0,0,0,0,-5.8052,-5.8069,-5.8242,-5.8195,-5.8196,-5.8184,-5.8195,-5.828,-5.8304,-5.8239,-5.8237,-5.825,-5.8331,-5.8361,-5.837,-5.8503,-5.8394,-5.8401,-5.8406,-5.8409,-5.8737,-5.8741,0,0,0,0,0,0,-5.8045,-5.8063,-5.8238,-5.8245,-5.8117,-5.8192,-5.8204,-5.8248,-5.8303,-5.8308,-5.8253,-5.8247,-5.835,-5.8362,-5.8374,-5.8519,-5.8402,-5.8409,-5.8414,-5.8733,-5.8738,-5.8742,0,0,0,0,0,0,-5.804,-5.8061,-5.8234,-5.8153,-5.8175,-5.82,-5.825,-5.8252,-5.8282,-5.8313,-5.8317,-5.8279,-5.8347,-5.8363,-5.8463,-5.8522,-5.8413,-5.842,-5.8728,-5.8734,-5.874,-5.8812,0,0,0,0,0,0,-5.8034,-5.806,-5.8107,-5.8155,-5.8179,-5.8323,-5.8253,-5.8256,-5.8295,-5.8289,-5.8339,-5.8343,-5.8346,-5.8452,-5.8471,-5.8531,-5.8426,-5.8723,-5.8731,-5.8738,-5.8804,-5.8819,-5.8833,0,0,0,0,0,-5.8025,-5.8122,-5.8109,-5.8131,-5.8239,-5.8326,-5.834,-5.8341,-5.83,-5.8347,-5.8368,-5.8342,-5.8514,-5.8463,-5.8484,-5.8546,-5.8719,-5.8729,-5.8738,-5.8797,-5.8816,-5.8832,0,0,0,0,0,0,-5.8079,-5.8128,-5.8115,-5.823,-5.8275,-5.8319,-5.8378,-5.8361,-5.8417,-5.8409,-5.8408,-5.8419,-5.8523,-5.8545,-5.8488,-5.8667,-5.861,-5.8624,-5.8648,-5.8667,-5.8681,-5.8671,-5.8432,0,0,0,0,0,-5.8105,-5.8173,-5.8212,-5.831,-5.8333,-5.8352,-5.839,-5.8388,-5.8433,-5.8451,-5.8479,-5.8523,-5.8586,-5.8628,-5.8689,-5.8808,-5.8817,-5.8862,-5.8876,-5.8888,-5.8899,-5.8962,-5.8982,-5.8773,-5.8773,-5.8773,0,0,-5.8158,-5.8193,-5.8236,-5.8322,-5.8356,-5.8425,-5.8368,-5.8444,-5.8494,-5.8462,-5.8558,-5.8581,-5.863,-5.874,-5.879,-5.8761,-5.8959,-5.89,-5.8909,-5.8913,-5.8974,-5.8994,-5.9011,-5.8779,-5.8778,-5.8777,0,0,-5.8289,-5.8324,-5.8408,-5.8444,-5.8497,-5.8509,-5.853,-5.8577,-5.8591,-5.8688,-5.8665,-5.8725,-5.8835,-5.8871,-5.8903,-5.9051,-5.9028,-5.9071,-5.9144,-5.9206,-5.9222,-5.9237,-5.9287,-5.9305,-5.9082,-5.9082,-5.9082,0,-5.8347,-5.8451,-5.8454,-5.8532,-5.857,-5.8546,-5.8631,-5.8666,-5.8735,-5.8761,-5.873,-5.8868,-5.8899,-5.9017,-5.9053,-5.9081,-5.9103,-5.9063,-5.922,-5.9235,-5.9248,-5.9296,-5.9315,-5.9087,-5.9086,-5.9086,-5.9085,0,-5.852,-5.8593,-5.8655,-5.8724,-5.8769,-5.885,-5.8864,-5.891,-5.8905,-5.892,-5.9019,-5.9056,-5.9123,-5.9152,-5.9147,-5.9269,-5.925,-5.922,-5.9161,-5.9273,-5.9317,-5.9336,-5.9093,-5.9092,-5.909,-5.9089,0,0,-5.8685,-5.8755,-5.8778,-5.8808,-5.8866,-5.8921,-5.9002,-5.9069,-5.9107,-5.9157,-5.9222,-5.9318,-5.929,-5.9327,-5.9326,-5.9381,-5.9493,-5.9344,-5.9345,-5.9368,-5.9627,-5.9647,-5.9669,-5.948,-5.9484,-5.9487,-5.9622,0,-5.8818,-5.8959,-5.8965,-5.9093,-5.9159,-5.9139,-5.9208,-5.9251,-5.9268,-5.9326,-5.9345,-5.9411,-5.9371,-5.9393,-5.9447,-5.9468,-5.9544,-5.9459,-5.9539,-5.9542,-5.9524,-5.9693,-5.9714,-5.984,-5.964,-5.9643,-5.9645,0,-5.8992,-5.9048,-5.9183,-5.9231,-5.9259,-5.9321,-5.9383,-5.944,-5.9487,-5.9496,-5.9538,-5.953,-5.9611,-5.9553,-5.9664,-5.9605,-5.9639,-5.9655,-5.966,-5.9664,-5.9598,-5.9699,-5.9881,-5.9899,-5.9673,-5.9671,-5.9669,0,-5.9096,-5.9205,-5.9299,-5.9327,-5.9385,-5.943,-5.9456,-5.95,-5.954,-5.9594,-5.962,-5.9683,-5.9716,-5.9765,-5.9773,-5.9731,-5.9884,-5.9827,-5.9892,-5.9891,-5.9922,-5.9919,-6.0109,-5.9949,-5.9949,-5.9949,-5.9948,0,-5.9242,-5.9325,-5.9347,-5.9404,-5.9496,-5.9502,-5.9593,-5.9616,-5.9656,-5.9717,-5.9704,-5.9762,-5.9771,-5.983,-5.9838,-5.9927,-5.9944,-5.9951,-5.9952,-5.9951,-5.995,-5.997,-5.9961,-5.9954,-5.9953,-5.9952,-5.9951,0,-5.9372,-5.939,-5.9491,-5.954,-5.9554,-5.9619,-5.966,-5.9715,-5.9731,-5.9809,-5.9828,-5.9853,-5.9923,-5.9937,-6.002,-6.0025,-6.0131,-6.0124,-6.0114,-6.0113,-6.0176,-6.0168,-6.0382,-6.041,-6.0235,-6.0237,-6.0239,0,-5.9463,-5.9526,-5.9581,-5.9622,-5.9651,-5.9716,-5.9757,-5.9766,-5.9809,-5.9869,-5.9916,-5.9985,-6.004,-6.0152,-6.0177,-6.024,-6.0233,-6.0304,-6.0242,-6.0239,-6.0231,-6.0226,-6.0231,-6.0314,-6.0316,-6.0318,-6.0319,0,-5.9621,-5.9627,-5.9687,-5.9751,-5.9801,-5.9851,-5.9899,-5.9933,-5.9948,-5.9997,-6.0068,-6.0111,-6.0196,-6.0263,-6.0327,-6.0353,-6.0338,-6.0339,-6.0357,-6.0355,-6.0346,-6.0349,-6.0143,-6.0333,-6.0332,-6.0331,-6.033,-6.0329,-5.9732,-5.9787,-5.9835,-5.9902,-5.9939,-5.9985,-6.0038,-6.0063,-6.0123,-6.0192,-6.0194,-6.0272,-6.0318,-6.0402,-6.0432,-6.0492,-6.047,-6.0496,-6.0502,-6.0508,-6.0513,-6.0339,-6.0504,-6.0504,-6.0504,-6.0503,-6.0503,0,-5.9888,-5.9918,-5.998,-6.0048,-6.0101,-6.0085,-6.0137,-6.0182,-6.025,-6.0295,-6.035,-6.0432,-6.0498,-6.053,-6.0595,-6.0637,-6.0631,-6.0653,-6.0648,-6.0654,-6.053,-6.0507,-6.0656,-6.0656,-6.0656,-6.0656,-6.0656,-6.0656,-5.9975,-6.0066,-6.0078,-6.0188,-6.0218,-6.0294,-6.0325,-6.0366,-6.0402,-6.0494,-6.0549,-6.057,-6.061,-6.0678,-6.0737,-6.0745,-6.0768,-6.0792,-6.0796,-6.0679,-6.0663,-6.0648,-6.0626,-6.0798,-6.0798,-6.0915,-6.0916,-6.0917]},{"header":{"parameterUnit":"m.s-1","parameterCategory":1,"la1":30.2991,"la2":30.254,"lo1":-89.0895,"lo2":-89.0444,"dy":0.0017,"dx":0.0017,"nx":28,"ny":28,"refTime":"2025-04-20T03:00:00:Z","depth":0,"parameterNumber":3,"parameterNumberName":"V-component_of_WINDS"},"data":[0,0,0,0,0,0,0,0,0,0,0,0,0,0,0,0,0,0,0,0,0,0,0,0,0,0,0,0,0,0,0,0,0,0,0,0,0,0,0,0,0,0,0,0,0,0,0,0,0,0,0,0,0,0,0,0,0,0,4.2774,4.2775,0,4.2817,4.2817,4.2818,4.2789,4.2788,4.2787,4.2785,4.2825,4.2827,4.2829,0,0,0,0,0,0,0,0,0,0,0,0,0,4.2665,4.2668,4.2774,4.2775,4.2775,4.2817,4.2817,4.2818,4.2789,4.2788,4.2786,4.2785,4.2824,4.2827,4.283,0,0,0,0,0,0,0,0,0,0,0,0,0,4.2711,4.2668,4.2774,4.2766,4.2766,4.2817,4.2817,4.2818,4.279,4.2788,4.2786,4.2784,4.2823,4.2827,4.283,4.289,0,0,4.284,4.2842,0,0,0,0,0,0,0,0,4.2708,4.2715,4.2767,4.2767,4.2766,4.2796,4.2793,4.2842,4.279,4.278,4.2785,4.2783,4.2817,4.282,4.2832,4.2892,4.2893,4.2841,4.2843,4.2844,4.2845,0,0,0,0,0,0,0,4.2705,4.2713,4.2791,4.2767,4.2767,4.2759,4.2764,4.2802,4.2809,4.2781,4.2779,4.2785,4.2816,4.2829,4.2833,4.2894,4.2841,4.2844,4.2846,4.2847,4.3005,4.3007,0,0,0,0,0,0,4.2703,4.271,4.2789,4.2792,4.2732,4.2763,4.2768,4.2788,4.2808,4.281,4.2786,4.2783,4.2824,4.2829,4.2834,4.2907,4.2844,4.2847,4.2849,4.3003,4.3006,4.3008,0,0,0,0,0,0,4.2701,4.271,4.2788,4.2751,4.276,4.2767,4.279,4.279,4.2803,4.2812,4.2813,4.2799,4.2823,4.283,4.2877,4.2907,4.2849,4.2852,4.3001,4.3004,4.3007,4.3051,0,0,0,0,0,0,4.2698,4.271,4.2733,4.2752,4.2762,4.283,4.2792,4.2792,4.281,4.2806,4.2824,4.2825,4.2822,4.2872,4.288,4.2911,4.2855,4.2998,4.3002,4.3006,4.3046,4.3055,4.3062,0,0,0,0,0,4.2694,4.2742,4.2734,4.2744,4.2792,4.2832,4.2838,4.2834,4.2812,4.2835,4.2842,4.2825,4.2903,4.2877,4.2886,4.2918,4.2996,4.3001,4.3006,4.3043,4.3053,4.3062,0,0,0,0,0,0,4.2725,4.2745,4.2736,4.2792,4.2811,4.2827,4.2856,4.2845,4.287,4.2865,4.2858,4.2863,4.2912,4.292,4.2891,4.2978,4.2946,4.2953,4.2971,4.2981,4.2989,4.2986,4.2857,0,0,0,0,0,4.2739,4.2771,4.2786,4.2834,4.2844,4.2849,4.2866,4.2862,4.2881,4.2888,4.2897,4.2915,4.2944,4.2963,4.299,4.3048,4.3051,4.3075,4.3082,4.3089,4.3095,4.3127,4.3138,4.3024,4.3024,4.3024,0,0,4.2767,4.2781,4.2802,4.2841,4.2855,4.2888,4.2855,4.2891,4.2916,4.2893,4.2939,4.2947,4.2966,4.3019,4.3043,4.3027,4.3127,4.3095,4.31,4.3103,4.3133,4.3144,4.3153,4.3028,4.3027,4.3026,0,0,4.2835,4.2849,4.2891,4.2907,4.293,4.2933,4.2943,4.2962,4.2967,4.3013,4.2997,4.3025,4.3075,4.309,4.3104,4.318,4.3166,4.3189,4.323,4.3261,4.327,4.3278,4.3306,4.3316,4.3195,4.3195,4.3195,0,4.2866,4.2917,4.2914,4.2952,4.297,4.2953,4.2995,4.301,4.304,4.3052,4.3034,4.3097,4.3109,4.3166,4.3185,4.3197,4.3208,4.3186,4.3269,4.3277,4.3284,4.3311,4.3321,4.3198,4.3197,4.3197,4.3197,0,4.2954,4.299,4.3021,4.3052,4.3073,4.3113,4.3116,4.3138,4.3133,4.3137,4.3185,4.3199,4.3229,4.3242,4.3236,4.3299,4.3289,4.327,4.3238,4.3298,4.3323,4.3333,4.3201,4.32,4.32,4.3199,0,0,4.3041,4.3073,4.3084,4.3099,4.3124,4.3151,4.319,4.3221,4.324,4.3261,4.3294,4.3338,4.3322,4.3338,4.3333,4.3361,4.3422,4.334,4.334,4.3354,4.3492,4.3505,4.3517,4.3413,4.3415,4.3416,4.349,0,4.3111,4.3182,4.3181,4.3246,4.3279,4.3264,4.3299,4.3318,4.3324,4.3352,4.3358,4.3389,4.3365,4.3375,4.3402,4.3409,4.3449,4.3403,4.3442,4.3444,4.3438,4.353,4.3544,4.3613,4.35,4.3501,4.3503,0,4.3201,4.3228,4.3297,4.3319,4.3332,4.3364,4.3393,4.342,4.3441,4.3443,4.3463,4.3455,4.3495,4.3462,4.3517,4.3486,4.3502,4.3508,4.351,4.3513,4.3477,4.3535,4.3635,4.3646,4.3518,4.3516,4.3515,0,4.3259,4.3312,4.336,4.3373,4.34,4.3422,4.3434,4.3453,4.3472,4.3498,4.351,4.3539,4.3555,4.3577,4.3577,4.3553,4.3633,4.36,4.3636,4.3636,4.3652,4.3651,4.3756,4.3663,4.3663,4.3663,4.3663,0,4.3337,4.3379,4.3387,4.3416,4.3464,4.3463,4.351,4.3519,4.3537,4.3568,4.3557,4.3585,4.3584,4.3613,4.3614,4.3659,4.3666,4.3669,4.3668,4.367,4.367,4.368,4.3675,4.3666,4.3665,4.3664,4.3664,0,4.3408,4.3415,4.3467,4.3489,4.3495,4.3529,4.3547,4.3575,4.3581,4.362,4.3629,4.3638,4.3672,4.3675,4.3714,4.3714,4.3769,4.3764,4.3763,4.3762,4.3798,4.3794,4.3913,4.3928,4.3825,4.3826,4.3827,0,4.3457,4.349,4.3516,4.3537,4.3551,4.3584,4.3604,4.3605,4.3627,4.3654,4.3679,4.3712,4.3739,4.3794,4.3803,4.3833,4.3828,4.3868,4.3832,4.3833,4.3829,4.3827,4.3831,4.3874,4.3875,4.3876,4.3877,0,4.3544,4.3547,4.3577,4.3609,4.3635,4.3659,4.3683,4.37,4.3704,4.3728,4.3764,4.3785,4.3826,4.3859,4.3889,4.39,4.3889,4.3888,4.3898,4.39,4.3898,4.39,4.3782,4.3885,4.3884,4.3884,4.3883,4.3883,4.3606,4.3635,4.3659,4.3694,4.3712,4.3734,4.3762,4.3773,4.3803,4.3838,4.3836,4.3876,4.3897,4.3936,4.3949,4.398,4.3966,4.3981,4.3984,4.3988,4.3992,4.3894,4.3985,4.3985,4.3985,4.3985,4.3984,0,4.3693,4.3708,4.374,4.3774,4.3802,4.3791,4.3817,4.384,4.3876,4.3897,4.3924,4.3966,4.3998,4.4011,4.4043,4.4065,4.4061,4.4073,4.4072,4.4074,4.4002,4.399,4.4076,4.4076,4.4076,4.4076,4.4076,4.4076,4.3741,4.379,4.3796,4.3854,4.3868,4.3908,4.3924,4.3944,4.3962,4.4009,4.4037,4.4046,4.4064,4.4097,4.4127,4.4129,4.4142,4.4156,4.4157,4.4089,4.4079,4.4071,4.406,4.4159,4.4159,4.4227,4.4228,4.4228]}]]